Flight Track Log - Related Links

Times and Time Zones

All times are in EDT time to prevent confusion due to time zone crossing. See the SWA3779 flight status page for this flight to view local times or setup timezone preferences in your user account.

Time Position Orientation Groundspeed Altitude Reporting Facility
EDT Latitude Longitude Course Direction KTS MPH feet Rate Location/Type
Mon 07:12:35 PM 32.7833 -117.3000 301° West 270 311 5,200  Level Southern California TRACON
Mon 07:13:48 PM 32.8356 -117.3922 304° West 284 327 10,900 3,822 Climbing Los Angeles Center
Mon 07:14:50 PM 32.8886 -117.4769 307° West 315 362 13,800 3,387 Climbing Los Angeles Center
Mon 07:15:52 PM 32.9733 -117.5406 328° Northwest 356 410 17,900 3,629 Climbing Los Angeles Center
Mon 07:16:54 PM 33.0617 -117.5992 331° Northwest 375 432 21,300 3,387 Climbing Los Angeles Center
Mon 07:17:00 PM 33.2685 -116.8760 26° Northeast  Level Estimated
Mon 07:17:56 PM 33.1897 -117.6208 352° North 388 447 24,900  Level Los Angeles Center
Mon 07:18:58 PM 33.2961 -117.6406 351° North 388 447 28,400 1,984 Climbing Los Angeles Center
Mon 07:20:00 PM 33.4006 -117.6594 351° North 387 445 29,000 290 Climbing Los Angeles Center
Mon 07:21:02 PM 33.5067 -117.6786 351° North 387 445 29,000  Level Los Angeles Center
Mon 07:22:04 PM 33.6122 -117.6992 351° North 387 445 29,000  Level Los Angeles Center
Mon 07:23:06 PM 33.7383 -117.7219 351° North 387 445 29,000  Level Los Angeles Center
Mon 07:24:08 PM 33.8444 -117.7425 351° North 386 444 29,000  Level Los Angeles Center
Mon 07:25:10 PM 33.9500 -117.7625 351° North 387 445 29,000  Level Los Angeles Center
Mon 07:26:12 PM 34.0558 -117.7789 353° North 388 447 29,000  Level Los Angeles Center
Mon 07:28:16 PM 34.2192 -117.5978 42° Northeast 408 470 29,000  Level Los Angeles Center
Mon 07:30:20 PM 34.3828 -117.3764 47° Northeast 405 466 29,000  Level Los Angeles Center
Mon 07:31:00 PM 34.4044 -117.3606 47° Northeast  Level FlightAware Approximate
Mon 07:31:22 PM 34.4594 -117.2694 49° Northeast 405 466 29,000  Level Los Angeles Center
Mon 07:32:24 PM 34.5339 -117.1678 48° Northeast 405 466 29,000  Level Los Angeles Center
Mon 07:33:27 PM 34.6078 -117.0658 49° Northeast 405 466 29,000  Level Los Angeles Center
Mon 07:34:29 PM 34.6856 -116.9581 49° Northeast 425 489 29,000  Level Los Angeles Center
Mon 07:35:31 PM 34.7683 -116.8444 48° Northeast 446 513 29,000  Level Los Angeles Center
Mon 07:36:33 PM 34.8653 -116.7086 49° Northeast 445 512 29,000  Level Los Angeles Center
Mon 07:37:35 PM 34.9450 -116.5978 49° Northeast 443 510 29,000 -1,355 Level Los Angeles Center
Mon 07:38:37 PM 35.0297 -116.4906 46° Northeast 441 507 26,200 -2,419 Descending Los Angeles Center
Mon 07:39:39 PM 35.1117 -116.3864 46° Northeast 434 499 24,000 -1,065 Descending Los Angeles Center
Mon 07:40:41 PM 35.1925 -116.2867 45° Northeast 420 483 24,000  Level Los Angeles Center
Mon 07:41:43 PM 35.2892 -116.1644 46° Northeast 418 481 24,000 -1,065 Level Los Angeles Center
Mon 07:42:45 PM 35.3692 -116.0636 46° Northeast 416 479 21,800 -2,323 Descending Los Angeles Center
Mon 07:43:47 PM 35.4467 -115.9675 45° Northeast 402 463 19,200 -2,557 Descending Los Angeles Center
Mon 07:44:40 PM 35.5203 -115.8753 46° Northeast 395 455 16,900 -2,619 Descending Los Angeles Center
Mon 07:45:53 PM 35.6083 -115.7628 46° Northeast 370 426 13,700 -1,781 Descending Los Angeles Center
Mon 07:46:48 PM 35.6644 -115.6919 46° Northeast 337 388 13,100 -942 Descending Los Angeles Center
Mon 07:47:54 PM 35.7019 -115.5847 67° East 293 337 11,800 -1,523 Descending Los Angeles Center
Mon 07:48:58 PM 35.7283 -115.4783 73° East 301 346 9,800 -1,762 Descending Los Angeles Center
Mon 07:50:00 PM 35.7497 -115.3822 75° East 298 343 8,100 -857 Descending Los Angeles Center
Mon 07:50:57 PM 35.8072 -115.3228 40° Northeast 277 319 8,100 -484 Level Los Angeles Center
Mon 07:52:04 PM 35.8853 -115.2781 25° Northeast 281 323 7,100 -698 Descending Los Angeles Center
Mon 07:53:06 PM 35.9472 -115.2425 25° Northeast 212 244 6,600 -1,096 Descending Los Angeles Center
Mon 07:53:59 PM 35.9822 -115.2231 24° Northeast 149 171 5,000 -1,714 Descending Los Angeles Center
Mon 07:54:09 PM 35.9894 -115.2186 26° Northeast 172 198 4,800 -1,377 Descending Los Angeles Center
Mon 07:55:00 PM 36.0228 -115.2017 22° Northeast 158 182 3,600 -1,355 Descending Los Angeles Center
Mon 07:55:11 PM 36.0306 -115.1950 35° Northeast 167 192 3,400 -986 Descending Los Angeles Center
Mon 07:56:13 PM 36.0692 -115.1731 25° Northeast 143 165 2,400 -968 Descending Los Angeles Center
Mon 07:58:00 PM 36.0801 -115.1523 57° Northeast  Level Estimated

Login

Don't have an account? Register now (free) for customized features, flight alerts, and more!